Location: Ar Ranvel
(48.3000°N, 4.8833°W)
Time: 21:22:23
(UTC+00:00)

Meteor 2-10 Rocket - Pass Details

Date: 01 November 2021
Orbit: 733 x 885 km, 81.2° (Epoch: 30 November)

Event Time Altitude Azimuth Distance (km) Brightness Sun altitude
Rises 04:30:53 0° 349° (N) 3,182 6.7 -26.0°
Reaches altitude 10° 04:33:14 10° 352° (N) 2,249 5.9 -25.7°
Maximum altitude 04:38:15 71° 77° (ENE) 781 3.6 -24.8°
Drops below altitude 10° 04:43:16 10° 161° (SSE) 2,249 6.1 -24.0°
Sets 04:45:37 0° 164° (SSE) 3,181 6.8 -23.6°
